Aurora, IL

10:20 AM CDT on August 16, 2017 (GMT -0500)
Aurora Municipal

Weather History for KARR - October, 2011

Change the Weather History Date:

Sunday, October 16, 2011

  Actual Average Record
Temperature  
Mean Temperature 52 °F 51 °F  
Max Temperature 60 °F 62 °F 74 °F (2016)
Min Temperature 42 °F 39 °F 29 °F (2015)
Degree Days  
Heating Degree Days 14 15  
Month to date heating degree days 197  
Since 1 July heating degree days 350  
Cooling Degree Days 0 0  
Month to date cooling degree days 9  
Year to date cooling degree days 656  
Growing Degree Days 2 (Base 50)    
Moisture  
Dew Point 40 °F    
Average Humidity 70    
Maximum Humidity 90    
Minimum Humidity 42    
Precipitation  
Precipitation 0.10 in 0.11 in 0.74 in (2007)
Month to date precipitation 1.64  
Year to date precipitation 30.28  
Sea Level Pressure  
Sea Level Pressure 29.84 in    
Wind  
Wind Speed 5 mph (West)    
Max Wind Speed 18 mph    
Max Gust Speed 24 mph    
Visibility 10 miles    
Events Rain    
T = Trace of Precipitation, MM = Missing Value Source: NWS Daily Summary

Daily Weather History Graph

Daily Weather History Graph

Search for Another Location

Airport or City:

Trip Planner

Search our weather history database for the weather conditions in past years. The results will help you decide how hot, cold, wet, or windy it might be!

Date:

Astronomy

Oct. 16, 2011 Rise Set
Actual Time 7:06 AM CDT 6:11 PM CDT
Civil Twilight 6:38 AM CDT 6:39 PM CDT
Nautical Twilight 6:06 AM CDT 7:11 PM CDT
Astronomical Twilight 5:34 AM CDT 7:43 PM CDT
Moon 8:53 PM CDT 11:27 AM CDT
Length of Visible Light 12h 00m
Length of Day
11h 04m
Waning Gibbous, 82% of the Moon is Illuminated
Oct 16
Waning Gibbous
Oct 19
Last Quarter
Oct 26
New
Nov 2
First Quarter
Nov 10
Full

Hourly Weather History & Observations

Time (CDT) Temp. Windchill Dew Point Humidity Pressure Visibility Wind Dir Wind Speed Gust Speed Precip Events Conditions
12:52 AM 48.9 °F - 37.9 °F 66% 29.88 in 10.0 mi Calm Calm - N/A   Clear
1:52 AM 48.9 °F - 37.9 °F 66% 29.86 in 10.0 mi Calm Calm - N/A   Clear
2:52 AM 45.0 °F 42.6 °F 39.9 °F 82% 29.84 in 10.0 mi East 4.6 mph - N/A   Clear
3:52 AM 45.0 °F - 39.0 °F 80% 29.82 in 10.0 mi Calm Calm - N/A   Scattered Clouds
4:52 AM 46.9 °F - 41.0 °F 80% 29.80 in 10.0 mi Calm Calm - N/A   Clear
6:52 AM 48.0 °F - 44.1 °F 86% 29.81 in 9.0 mi Calm Calm - 0.02 in Rain Light Rain
7:52 AM 48.0 °F - 45.0 °F 89% 29.79 in 10.0 mi South 4.6 mph - 0.03 in Rain Light Rain
8:52 AM 48.9 °F - 46.0 °F 90% 29.87 in 7.0 mi WNW 11.5 mph - 0.02 in Rain Light Rain
9:52 AM 48.9 °F - 46.0 °F 90% 29.81 in 10.0 mi NW 4.6 mph - 0.03 in   Overcast
10:52 AM 53.1 °F - 46.0 °F 77% 29.82 in 10.0 mi WSW 4.6 mph - N/A   Clear
11:52 AM 55.9 °F - 46.9 °F 72% 29.82 in 10.0 mi WNW 5.8 mph - N/A   Partly Cloudy
12:52 PM 55.9 °F - 41.0 °F 57% 29.82 in 10.0 mi NW 18.4 mph - N/A   Clear
1:52 PM 55.9 °F - 42.1 °F 60% 29.81 in 10.0 mi WNW 15.0 mph 23.0 mph N/A   Clear
2:52 PM 59.0 °F - 41.0 °F 51% 29.81 in 10.0 mi WNW 12.7 mph - N/A   Clear
4:52 PM 57.9 °F - 35.1 °F 42% 29.85 in 10.0 mi West 17.3 mph 24.2 mph N/A   Scattered Clouds
5:52 PM 54.0 °F - 35.1 °F 49% 29.84 in 10.0 mi West 10.4 mph - N/A   Clear
7:52 PM 48.0 °F - 35.1 °F 61% 29.86 in 10.0 mi WSW 8.1 mph - N/A   Clear
8:52 PM 46.0 °F 41.9 °F 36.0 °F 68% 29.88 in 10.0 mi WSW 8.1 mph - N/A   Clear
9:52 PM 45.0 °F 40.6 °F 35.1 °F 68% 29.89 in 10.0 mi WSW 8.1 mph - N/A   Clear
10:52 PM 44.1 °F 39.0 °F 34.0 °F 68% 29.90 in 10.0 mi WSW 9.2 mph - N/A   Clear
11:52 PM 42.1 °F 36.6 °F 33.1 °F 70% 29.89 in 10.0 mi WSW 9.2 mph - N/A   Clear